Location: Casone le Fosse
(44.6547°N, 12.1103°E)
Time: 11:53:37
(UTC+00:00)

Cosmos 1980 Rocket - Pass Details

Date: 29 October 2020
Orbit: 831 x 848 km, 71.0° (Epoch: 27 November)

Event Time Altitude Azimuth Distance (km) Brightness Sun altitude
Rises 19:13:20 0° 230° (SW) 3,379 5.7 -34.0°
Reaches altitude 10° 19:15:58 10° 238° (WSW) 2,446 5.0 -34.4°
Maximum altitude 19:21:06 36° 305° (NW) 1,297 3.5 -35.3°
Enters shadow 19:21:25 36° 312° (NW) 1,302 3.5 -35.4°
